GW4681 Weather Reports


time (UTC)temp
F
wind
direction
speed
knots
gust
knots
rain 1hr
in
rain 24hr
in
rain mn
in
humidity
%
barometer
mb
20260503055003 62 1 0.9 2.6 0.00 0.00 0.00 47 1014.1
20260503054512 62 351 0.9 2.6 0.00 0.00 0.00 46 1014.0
20260503054002 62 330 0.9 2.6 0.00 0.00 0.00 46 1014.0
20260503053503 63 319 0.9 2.6 0.00 0.00 0.00 46 1013.9
20260503053014 63 335 0.9 2.6 0.00 0.00 0.00 46 1013.9
20260503052504 63 327 0.9 2.6 0.00 0.00 0.00 45 1013.9
20260503052005 63 307 0.0 1.7 0.00 0.00 0.00 44 1013.9
20260503051525 63 302 0.9 1.7 0.00 0.00 0.00 43 1013.9
20260503051006 63 349 0.0 0.0 0.00 0.00 0.00 43 1013.9
20260503050507 63 349 0.0 1.7 0.00 0.00 0.00 45 1013.8
20260503050022 63 349 0.0 1.7 0.00 0.00 0.00 44 1013.8
20260503045508 63 349 0.9 1.7 0.00 0.00 0.00 44 1013.8
20260503045004 63 1 0.0 1.7 0.00 0.00 0.00 44 1013.8
20260503044504 64 29 0.0 0.0 0.00 0.00 0.00 44 1013.8
20260503044004 64 29 0.0 0.0 0.00 0.00 0.00 43 1013.7
20260503043505 64 29 0.0 0.0 0.00 0.00 0.00 44 1013.7
20260503043010 65 29 0.0 0.0 0.00 0.00 0.00 44 1013.7
20260503042504 65 29 0.0 0.0 0.00 0.00 0.00 43 1013.7
20260503042004 66 29 0.0 0.0 0.00 0.00 0.00 42 1013.7
20260503041524 66 29 0.0 0.0 0.00 0.00 0.00 42 1013.6
20260503041003 66 29 0.0 0.0 0.00 0.00 0.00 41 1013.5
20260503040506 67 29 0.0 0.0 0.00 0.00 0.00 40 1013.4
20260503040022 67 29 0.0 0.0 0.00 0.00 0.00 40 1013.4
20260503035508 68 29 0.0 0.0 0.00 0.00 0.00 39 1013.4
20260503035011 68 29 0.0 0.0 0.00 0.00 0.00 38 1013.3
20260503034524 68 29 0.0 0.0 0.00 0.00 0.00 37 1013.3
20260503034008 69 29 0.0 0.9 0.00 0.00 0.00 37 1013.2
20260503033507 69 29 0.0 1.7 0.00 0.00 0.00 37 1013.1
20260503033007 69 29 0.0 1.7 0.00 0.00 0.00 36 1013.0
20260503032504 69 29 0.0 1.7 0.00 0.00 0.00 35 1013.0
20260503032004 70 37 0.0 0.9 0.00 0.00 0.00 35 1012.9
20260503031512 70 37 0.0 0.9 0.00 0.00 0.00 34 1012.8
20260503031005 70 37 0.0 0.9 0.00 0.00 0.00 33 1012.8
20260503030505 71 37 0.0 0.9 0.00 0.00 0.00 33 1012.8
20260503030024 71 37 0.0 1.7 0.00 0.00 0.00 33 1012.7
20260503025507 71 32 0.0 1.7 0.00 0.00 0.00 33 1012.7
20260503025006 71 14 0.0 1.7 0.00 0.00 0.00 33 1012.7
20260503024521 72 19 0.0 2.6 0.00 0.00 0.00 32 1012.7
20260503024010 72 19 0.9 2.6 0.00 0.00 0.00 30 1012.7
20260503023509 73 9 0.9 2.6 0.00 0.00 0.00 30 1012.7
20260503023027 73 33 0.0 4.3 0.00 0.00 0.00 29 1012.7
20260503022508 73 42 0.0 4.3 0.00 0.00 0.00 28 1012.7
20260503022009 73 39 0.9 3.5 0.00 0.00 0.00 28 1012.7
20260503021511 74 67 0.9 4.3 0.00 0.00 0.00 27 1012.7
20260503021003 74 41 0.9 4.3 0.00 0.00 0.00 27 1012.6
20260503020505 74 38 1.7 4.3 0.00 0.00 0.00 27 1012.5
20260503020014 74 75 1.7 4.3 0.00 0.00 0.00 27 1012.7
20260503015505 75 37 0.9 4.3 0.00 0.00 0.00 27 1012.6
20260503015008 75 19 1.7 4.3 0.00 0.00 0.00 27 1012.7
20260503014520 75 35 1.7 4.3 0.00 0.00 0.00 28 1012.7
20260503014008 75 69 0.9 3.5 0.00 0.00 0.00 27 1012.6
20260503013507 75 75 0.9 4.3 0.00 0.00 0.00 27 1012.6
20260503013033 76 39 0.9 5.2 0.00 0.00 0.00 27 1012.8
20260503012508 76 1 2.6 5.2 0.00 0.00 0.00 26 1012.8
20260503012010 76 25 1.7 5.2 0.00 0.00 0.00 25 1012.8
20260503011525 76 56 2.6 5.2 0.00 0.00 0.00 23 1012.9
20260503011012 77 50 2.6 5.2 0.00 0.00 0.00 22 1012.9
20260503010511 77 60 2.6 5.2 0.00 0.00 0.00 22 1012.9
20260503010011 77 57 2.6 4.3 0.00 0.00 0.00 22 1013.0
20260503005504 77 57 1.7 6.1 0.00 0.00 0.00 23 1013.0
20260503005005 77 20 2.6 7.0 0.00 0.00 0.00 23 1012.9
20260503004544 77 66 2.6 7.0 0.00 0.00 0.00 23 1012.9
20260503004008 77 25 2.6 8.7 0.00 0.00 0.00 24 1012.9
20260503003505 78 63 2.6 8.7 0.00 0.00 0.00 23 1012.9
20260503003032 78 25 2.6 7.8 0.00 0.00 0.00 23 1012.9
20260503002507 78 53 3.5 7.0 0.00 0.00 0.00 23 1013.0
20260503002010 79 347 2.6 6.1 0.00 0.00 0.00 22 1013.0
20260503001526 79 45 3.5 6.1 0.00 0.00 0.00 22 1013.1
20260503001009 80 47 2.6 6.1 0.00 0.00 0.00 19 1013.1
20260503000514 80 86 1.7 5.2 0.00 0.00 0.00 21 1013.0
20260503000026 80 78 1.7 5.2 0.00 0.00 0.00 18 1013.1
20260502235507 80 89 1.7 4.3 0.00 0.00 0.00 18 1013.1
20260502235009 80 105 1.7 5.2 0.00 0.00 0.00 19 1013.2
20260502234519 80 93 2.6 5.2 0.00 0.00 0.00 18 1013.2
20260502234003 80 43 0.9 3.5 0.00 0.00 0.00 20 1013.3
20260502233507 79 37 0.9 3.5 0.00 0.00 0.00 19 1013.3
20260502233019 80 94 1.7 4.3 0.00 0.00 0.00 16 1013.3
20260502232507 80 125 2.6 4.3 0.00 0.00 0.00 16 1013.3
20260502232006 80 53 0.9 4.3 0.00 0.00 0.00 19 1013.3
20260502231527 79 84 1.7 5.2 0.00 0.00 0.00 17 1013.3
20260502231003 79 93 1.7 6.1 0.00 0.00 0.00 16 1013.4
20260502230502 80 98 3.5 6.1 0.00 0.00 0.00 19 1013.4
20260502230007 81 85 1.7 6.1 0.00 0.00 0.00 20 1013.4
20260502225502 80 150 2.6 6.1 0.00 0.00 0.00 20 1013.5
20260502225002 80 122 0.9 3.5 0.00 0.00 0.00 19 1013.6
20260502224510 80 98 0.9 4.3 0.00 0.00 0.00 20 1013.6
20260502224004 80 87 2.6 5.2 0.00 0.00 0.00 20 1013.6
20260502223506 79 95 1.7 5.2 0.00 0.00 0.00 21 1013.7
20260502223016 80 87 1.7 5.2 0.00 0.00 0.00 20 1013.8
20260502222507 80 93 2.6 6.1 0.00 0.00 0.00 19 1013.8
20260502222006 80 92 2.6 6.1 0.00 0.00 0.00 19 1013.8
20260502221519 80 96 2.6 5.2 0.00 0.00 0.00 19 1013.9
20260502221006 80 101 0.9 3.5 0.00 0.00 0.00 18 1014.0
20260502220503 80 214 0.0 3.5 0.00 0.00 0.00 17 1014.1
20260502220012 80 114 0.9 3.5 0.00 0.00 0.00 16 1014.1
20260502215504 80 30 0.9 5.2 0.00 0.00 0.00 16 1014.2
20260502215003 80 23 0.9 6.1 0.00 0.00 0.00 19 1014.3
20260502214508 80 90 3.5 6.1 0.00 0.00 0.00 18 1014.4
20260502214005 81 113 3.5 5.2 0.00 0.00 0.00 19 1014.4
20260502213503 81 23 0.9 5.2 0.00 0.00 0.00 18 1014.4
20260502213028 81 78 1.7 5.2 0.00 0.00 0.00 17 1014.6
20260502212509 81 86 1.7 5.2 0.00 0.00 0.00 18 1014.6
20260502212006 80 46 2.6 5.2 0.00 0.00 0.00 18 1014.7
20260502211521 80 40 2.6 6.1 0.00 0.00 0.00 20 1014.8
20260502211007 79 19 2.6 6.1 0.00 0.00 0.00 23 1014.8
20260502210506 78 22 1.7 6.1 0.00 0.00 0.00 25 1015.0
20260502210024 79 93 1.7 6.1 0.00 0.00 0.00 22 1015.1
20260502205502 79 33 3.5 7.0 0.00 0.00 0.00 22 1015.1
20260502205005 80 91 1.7 7.0 0.00 0.00 0.00 23 1015.1
20260502204508 81 63 1.7 7.0 0.00 0.00 0.00 23 1015.1
20260502204004 80 348 0.9 3.5 0.00 0.00 0.00 21 1015.1
20260502203504 79 55 0.9 6.1 0.00 0.00 0.00 20 1015.2
20260502203012 78 98 0.9 7.0 0.00 0.00 0.00 21 1015.2
20260502202507 78 117 2.6 7.0 0.00 0.00 0.00 20 1015.2
20260502202006 78 158 2.6 6.1 0.00 0.00 0.00 24 1015.2
20260502201530 78 71 2.6 6.1 0.00 0.00 0.00 25 1015.3
20260502201008 77 94 1.7 5.2 0.00 0.00 0.00 24 1015.4
20260502200507 77 142 0.9 5.2 0.00 0.00 0.00 26 1015.5
20260502200022 77 89 1.7 5.2 0.00 0.00 0.00 25 1015.7
20260502195507 77 159 0.9 7.0 0.00 0.00 0.00 24 1015.7
20260502195007 76 82 1.7 7.0 0.00 0.00 0.00 24 1015.8
20260502194526 76 150 1.7 7.8 0.00 0.00 0.00 26 1015.9
20260502194003 76 193 2.6 7.8 0.00 0.00 0.00 29 1015.9
20260502193504 75 112 1.7 6.1 0.00 0.00 0.00 28 1016.0
20260502193008 75 141 3.5 7.0 0.00 0.00 0.00 27 1016.1
20260502192502 75 133 3.5 7.0 0.00 0.00 0.00 27 1016.3
20260502192003 75 105 1.7 7.8 0.00 0.00 0.00 26 1016.3
20260502191511 75 174 2.6 9.6 0.00 0.00 0.00 27 1016.3
20260502191003 74 182 2.6 9.6 0.00 0.00 0.00 26 1016.3
20260502190506 74 116 4.3 9.6 0.00 0.00 0.00 27 1016.4
20260502190019 74 174 6.1 9.6 0.00 0.00 0.00 25 1016.4
20260502185509 74 214 3.5 8.7 0.00 0.00 0.00 25 1016.4
20260502185007 74 167 3.5 8.7 0.00 0.00 0.00 27 1016.5
20260502184528 73 125 2.6 7.0 0.00 0.00 0.00 26 1016.7
20260502184006 73 177 1.7 7.8 0.00 0.00 0.00 26 1016.7
20260502183510 72 216 4.3 7.8 0.00 0.00 0.00 25 1016.8
20260502183029 72 103 0.9 6.1 0.00 0.00 0.00 27 1016.8
20260502182505 72 139 2.6 6.1 0.00 0.00 0.00 28 1017.0
20260502182004 71 309 0.9 4.3 0.00 0.00 0.00 28 1017.0
20260502181512 70 326 1.7 9.6 0.00 0.00 0.00 30 1017.1
20260502181006 70 188 3.5 9.6 0.00 0.00 0.00 30 1017.2
20260502180504 69 275 0.9 3.5 0.00 0.00 0.00 32 1017.2
20260502170506 63 231 0.0 7.0 0.00 0.00 0.00 34 1017.8
20260502164009 62 297 1.7 6.1 0.00 0.00 0.00 34 1018.0
20260502163507 61 180 0.9 6.1 0.00 0.00 0.00 35 1018.1
20260502163024 61 233 1.7 7.8 0.00 0.00 0.00 35 1018.1
20260502162508 61 251 3.5 7.8 0.00 0.00 0.00 35 1018.1
20260502162011 61 219 0.9 7.0 0.00 0.00 0.00 37 1018.1
20260502161526 60 260 1.7 7.8 0.00 0.00 0.00 36 1018.1
20260502161007 60 229 3.5 7.8 0.00 0.00 0.00 35 1018.2
20260502160510 60 202 1.7 7.0 0.00 0.00 0.00 34 1018.1
20260502152009 56 136 1.7 4.3 0.00 0.00 0.00 44 1018.0
20260502151524 55 167 0.9 4.3 0.00 0.00 0.00 44 1018.0
20260502151007 54 198 0.9 2.6 0.00 0.00 0.00 48 1018.0
20260502150507 53 226 0.0 2.6 0.00 0.00 0.00 48 1018.0
20260502130508 47 219 0.9 3.5 0.00 0.00 0.00 55 1017.3
20260502123504 46 34 0.0 0.9 0.00 0.00 0.00 65 1017.3
20260502123013 46 34 0.0 0.9 0.00 0.00 0.00 66 1017.4
20260502122507 46 34 0.0 0.0 0.00 0.00 0.00 65 1017.4
20260502122010 46 34 0.0 0.0 0.00 0.00 0.00 64 1017.3
20260502121522 47 34 0.0 0.0 0.00 0.00 0.00 64 1017.3
20260502121005 47 34 0.0 1.7 0.00 0.00 0.00 63 1017.3
20260502120508 46 34 0.0 1.7 0.00 0.00 0.00 64 1017.3
20260502115512 46 40 0.0 1.7 0.00 0.00 0.00 65 1017.2
20260502115010 46 40 0.9 1.7 0.00 0.00 0.00 65 1017.2
20260502114506 46 40 0.0 1.7 0.00 0.00 0.00 65 1017.2
20260502114004 46 40 0.0 1.7 0.00 0.00 0.00 65 1017.2
20260502113503 47 40 0.0 1.7 0.00 0.00 0.00 64 1017.2
20260502113009 47 40 0.0 0.9 0.00 0.00 0.00 63 1017.1
20260502112503 47 40 0.0 1.7 0.00 0.00 0.00 63 1017.2
20260502112005 48 40 0.0 1.7 0.00 0.00 0.00 63 1017.2
20260502111514 48 40 0.9 1.7 0.00 0.00 0.00 60 1017.1
20260502111005 49 40 0.9 1.7 0.00 0.00 0.00 59 1017.1
20260502110505 50 173 0.0 0.0 0.00 0.00 0.00 55 1017.0
20260502110021 50 173 0.0 1.7 0.00 0.00 0.00 53 1016.9
20260502105507 50 173 0.0 1.7 0.00 0.00 0.00 53 1017.0
20260502105006 50 160 0.0 0.9 0.00 0.00 0.00 53 1017.0
20260502104527 51 160 0.0 1.7 0.00 0.00 0.00 53 1016.9
20260502104009 51 160 0.0 1.7 0.00 0.00 0.00 52 1016.9
20260502103510 51 173 0.0 2.6 0.00 0.00 0.00 52 1016.9
20260502103026 51 188 0.0 3.5 0.00 0.00 0.00 51 1017.0
20260502102511 51 171 0.9 3.5 0.00 0.00 0.00 51 1017.0
20260502102003 51 207 0.9 3.5 0.00 0.00 0.00 51 1017.0
20260502101512 51 217 0.9 3.5 0.00 0.00 0.00 51 1017.0
20260502101004 51 235 0.9 4.3 0.00 0.00 0.00 52 1017.0
20260502100504 52 216 0.9 6.1 0.00 0.00 0.00 51 1017.0
20260502091528 51 144 0.9 1.7 0.00 0.00 0.00 53 1017.1
20260502091005 51 144 0.0 1.7 0.00 0.00 0.00 52 1017.1
20260502090504 51 144 0.0 1.7 0.00 0.00 0.00 53 1017.1
20260502071526 52 186 0.0 2.6 0.00 0.00 0.00 52 1017.5
20260502071003 52 177 0.9 2.6 0.00 0.00 0.00 52 1017.5
20260502070502 52 195 0.0 2.6 0.00 0.00 0.00 52 1017.4
20260502070008 52 147 0.9 2.6 0.00 0.00 0.00 51 1017.4
20260502065503 52 153 0.9 2.6 0.00 0.00 0.00 51 1017.5
20260502065004 52 160 0.9 2.6 0.00 0.00 0.00 52 1017.5
20260502064510 52 158 0.0 2.6 0.00 0.00 0.00 51 1017.5
20260502064007 53 173 0.0 1.7 0.00 0.00 0.00 51 1017.5
20260502063511 53 166 0.0 2.6 0.00 0.00 0.00 51 1017.6
20260502063021 53 204 0.0 3.5 0.00 0.00 0.00 50 1017.6
20260502062511 54 167 0.9 3.5 0.00 0.00 0.00 50 1017.5
20260502062006 54 193 0.0 3.5 0.00 0.00 0.00 48 1017.5
20260502061510 55 176 0.0 3.5 0.00 0.00 0.00 47 1017.5
20260502061005 55 209 0.9 2.6 0.00 0.00 0.00 46 1017.5
20260502060506 56 212 0.0 4.3 0.00 0.00 0.00 45 1017.5